Weather in Leonidovka

Russia / Penza Oblast     53°09′03″N   45°15′10″E
temp.,
°C
wind,
m/s
gust,
m/s
humid.,
%
clouds,
%
prec.,
mm/h
press.,
hPa
HPBL,
m
24 january, mon
mon2400:00−7e3795100 0.4 1031252
03:00−7e3796100 0.8 1032248
06:00−9ene3889100 0.1 1033244
09:00−11e31086100 0.1 1033237
12:00−8e378571 0.0 1033291
15:00−7e388998 0.0 1033294
18:00−11e28935 0.0 1032174
21:00−16e229850 0.0 103326
25 january, tue
tue2500:00−15e26958 0.0 103291
03:00−18e249799 0.0 103148
06:00−18e2397100 0.0 103049
09:00−16ese269627 0.0 1029109
12:00−9se2587100 0.0 1027269
15:00−8se2691100 0.0 1025346
18:00−13se2597100 0.0 102471
21:00−10sse389586 0.1 1022294
26 january, wed
wed2600:00−11sse279674 0.1 1020189
03:00−11sse2696100 0.3 1019153
06:00−12sse249788 0.1 101866
09:00−12s269781 0.3 1018183
12:00−8ssw3691100 0.1 1018429
15:00−8sw369399 0.3 1018399
18:00−12ssw2698100 0.0 1019109
21:00−12s2697100 0.0 1019144
27 january, thu
thu2700:00−13s2897100 0.0 1020171
03:00−15s2399100 0.0 102053
06:00−17s2399100 0.0 102055
09:00−16s2799100 0.1 1021144
12:00−10ssw3692100 0.0 1020356
15:00−9ssw299499 0.1 1020411
18:00−15sse2210087 0.1 102115
21:00−13sse239899 0.1 102059
28 january, fri
fri2800:00−11sse269789 0.2 1020121
03:00−11se269763 0.4 1019126
06:00−13se259879 0.0 101964
09:00−11sse269666 0.1 1019141
12:00−6sse379199 0.0 1017352
15:00−6sse389271 0.1 1016443
18:00−12se269863 0.0 101685
21:00−15se269866 0.0 101582